Satellite: CO-55
Catalog number: 27844
Epoch time:      09308.57021750
Element set:    0705
Inclination:      098.7133 deg
RA of node:       315.7638 deg
Eccentricity:    0.0010538
Arg of perigee:   096.6297 deg
Mean anomaly:     263.6083 deg
Mean motion:   14.20664775 rev/day
Decay rate:        7.4e-07 rev/day^2
Epoch rev:           32919
Checksum:              330

Satellite: CO-57
Catalog number: 27848
Epoch time:      09308.70834822
Element set:    0657
Inclination:      098.7169 deg
RA of node:       314.9666 deg
Eccentricity:    0.0010799
Arg of perigee:   102.2363 deg
Mean anomaly:     258.0021 deg
Mean motion:   14.20463183 rev/day
Decay rate:        4.1e-07 rev/day^2
Epoch rev:           32917
Checksum:              319

Satellite: AO-51
Catalog number: 28375
Epoch time:      09308.60837998
Element set:     525
Inclination:      098.0539 deg
RA of node:       310.0490 deg
Eccentricity:    0.0085105
Arg of perigee:   058.8147 deg
Mean anomaly:     302.1355 deg
Mean motion:   14.40657430 rev/day
Decay rate:        2.0e-07 rev/day^2
Epoch rev:           28117
Checksum:              301

Satellite: CO-56
Catalog number: 28941
Epoch time:      09297.68475575
Element set:     556
Inclination:      098.0955 deg
RA of node:       138.9518 deg
Eccentricity:    0.0011688
Arg of perigee:   319.8691 deg
Mean anomaly:     040.7485 deg
Mean motion:   16.46998778 rev/day
Decay rate:  1.4491492e-01 rev/day^2
Epoch rev:           20790
Checksum:              407

Satellite: GENESAT1
Catalog number: 29655
Epoch time:      09308.56491210
Element set:    0852
Inclination:      040.0238 deg
RA of node:       021.7595 deg
Eccentricity:    0.0002915
Arg of perigee:   132.4497 deg
Mean anomaly:     227.6571 deg
Mean motion:   15.69211764 rev/day
Decay rate:     1.8746e-04 rev/day^2
Epoch rev:           16450
Checksum:              305

Satellite: CP3
Catalog number: 31129
Epoch time:      09309.56295760
Element set:     307
Inclination:      097.9707 deg
RA of node:       355.7426 deg
Eccentricity:    0.0101878
Arg of perigee:   206.8622 deg
Mean anomaly:     152.7284 deg
Mean motion:   14.52176849 rev/day
Decay rate:       1.63e-06 rev/day^2
Epoch rev:           13540
Checksum:              320

Satellite: CO-65
Catalog number: 32785
Epoch time:      09308.33753546
Element set:    0516
Inclination:      097.9300 deg
RA of node:       011.0234 deg
Eccentricity:    0.0014179
Arg of perigee:   298.6224 deg
Mean anomaly:     061.3565 deg
Mean motion:   14.81536441 rev/day
Decay rate:       1.94e-06 rev/day^2
Epoch rev:           08219
Checksum:              305

Satellite: KKS-1
Catalog number: 33493
Epoch time:      09309.73787296
Element set:     913
Inclination:      098.0685 deg
RA of node:       062.6647 deg
Eccentricity:    0.0020815
Arg of perigee:   141.4039 deg
Mean anomaly:     218.8670 deg
Mean motion:   14.80766055 rev/day
Decay rate:       3.90e-06 rev/day^2
Epoch rev:            4241
Checksum:              318

Satellite: SOHLA-1
Catalog number: 33496
Epoch time:      09309.74950443
Element set:     878
Inclination:      098.0480 deg
RA of node:       056.9268 deg
Eccentricity:    0.0006315
Arg of perigee:   182.9282 deg
Mean anomaly:     177.1896 deg
Mean motion:   14.69453176 rev/day
Decay rate:        3.8e-07 rev/day^2
Epoch rev:            4206
Checksum:              337

/EX
SB KEPS @ AMSAT  $ORB09309.W
Orbital Elements  09309.WEATHER

HR AMSAT ORBITAL ELEMENTS FOR WEATHER SATELLITES
FROM WA5QGD FORT WORTH,TX November 5, 2009
Send Subscribe/unsubscribe to KEPS at 
http://www.amsat.org/mailman/listinfo/keps
BID: ORB09309.W
TO ALL RADIO AMATEURS BT

Satellite: NOAA-10
Catalog number: 16969
Epoch time:      09308.70283720
Element set:    0821
Inclination:      098.6806 deg
RA of node:       334.5164 deg
Eccentricity:    0.0012634
Arg of perigee:   143.9521 deg
Mean anomaly:     216.2515 deg
Mean motion:   14.27397523 rev/day
Decay rate:      -1.07e-06 rev/day^2
Epoch rev:           20355
Checksum:              295

Satellite: NOAA-11
Catalog number: 19531
Epoch time:      09308.79053020
Element set:    0839
Inclination:      098.7816 deg
RA of node:       036.5462 deg
Eccentricity:    0.0012292
Arg of perigee:   068.9831 deg
Mean anomaly:     291.2641 deg
Mean motion:   14.14907024 rev/day
Decay rate:       1.58e-06 rev/day^2
Epoch rev:           08940
Checksum:              305

Satellite: NOAA-12
Catalog number: 21263
Epoch time:      09308.90056491
Element set:    0331
Inclination:      098.7717 deg
RA of node:       317.0397 deg
Eccentricity:    0.0013398
Arg of perigee:   097.8813 deg
Mean anomaly:     262.3912 deg
Mean motion:   14.25599998 rev/day
Decay rate:        5.5e-07 rev/day^2
Epoch rev:           96044
Checksum:              337

Satellite: MET-3/5
Catalog number: 21655
Epoch time:      09308.91988928
Element set:    0751
Inclination:      082.5521 deg
RA of node:       107.0901 deg
Eccentricity:    0.0013451
Arg of perigee:   184.8189 deg
Mean anomaly:     175.2807 deg
Mean motion:   13.17021963 rev/day
Decay rate:        5.1e-07 rev/day^2
Epoch rev:           87615
Checksum:              315

